Home > Weather > Buffalo > Past weeks

Flag for USA Past Weather in Buffalo, New York, USA — Yesterday and Last 2 Weeks

Now
73 °F

Passing clouds.


Feels Like: 77 °F
Forecast: 61 / 83 °F
Wind: 7 mph from Northeast

Location: Greater Buffalo International Airport

Current Time: Jun 24, 2016 at 9:44:04 PM

Latest Report: Jun 24, 2016 at 8:54 PM


Visibility: 10 mi

Pressure: 30.07 "Hg

Humidity: 40%

Dew Point: 47 °F

Location of BuffaloLocation

Past Weather in Buffalo — Graph

°F

Buffalo Temperature Yesterday

Maximum temperature yesterday: 77 °F (at 1:54 PM)
Minimum temperature yesterday: 57 °F (at 4:54 AM)
Average temperature yesterday: 67 °F

High & Low Weather Summary for the Past Weeks

 TemperatureHumidityPressure
High86 °F (Jun 17, 3:54 PM)90% (Jun 15, 11:54 PM)30.30 "Hg (Jun 15, 11:54 PM)
Low44 °F (Jun 10, 5:54 AM)20% (Jun 17, 3:54 PM)29.67 "Hg (Jun 16, 2:54 PM)
Average68 °F52%29.97 "Hg
* Reported Jun 9 7:54 PM — Jun 24 7:54 PM, Buffalo, Weather by CustomWeather, © 2016

Note: Actual official high and low records may vary slightly from our data, if they occured in-between our weather recording intervals... More about our weather records

Advertising

Buffalo Weather History for the Previous 24 Hours

Scroll right to see more
 ConditionsComfort  
Time TempWeatherWind HumidityBarometerVisibility
7:54 PM
Fri, Jun 24
77 °FPassing clouds.10 mph35%30.07 "Hg10 mi
6:54 PM78 °FPassing clouds.16 mph36%30.07 "Hg10 mi
5:54 PM80 °FPassing clouds.15 mph35%30.05 "Hg10 mi
4:54 PM82 °FPassing clouds.3 mph25%30.05 "Hg10 mi
3:54 PM82 °FPassing clouds.5 mph25%30.06 "Hg10 mi
2:54 PM81 °FPassing clouds.No wind26%30.06 "Hg10 mi
1:54 PM81 °FPassing clouds.10 mph27%30.06 "Hg10 mi
12:54 PM80 °FPassing clouds.7 mph27%30.07 "Hg10 mi
11:54 AM79 °FPassing clouds.8 mph28%30.07 "Hg10 mi
10:54 AM77 °FPassing clouds.7 mph35%30.07 "Hg10 mi
9:54 AM73 °FPassing clouds.5 mph43%30.07 "Hg10 mi
8:54 AM68 °FPassing clouds.No wind51%30.08 "Hg10 mi
7:54 AM61 °FSunny.3 mph58%30.06 "Hg10 mi
6:54 AM54 °FSunny.3 mph72%30.05 "Hg10 mi
5:54 AM51 °FClear.5 mph77%30.03 "Hg10 mi
4:54 AM52 °FClear.3 mph77%30.01 "Hg10 mi
3:54 AM53 °FClear.3 mph74%30.01 "Hg10 mi
2:54 AM55 °FClear.5 mph72%29.99 "Hg10 mi
1:54 AM57 °FClear.No wind64%29.98 "Hg10 mi
12:54 AM59 °FClear.No wind58%29.96 "Hg10 mi
11:54 PM
Thu, Jun 23
62 °FClear.No wind56%29.96 "Hg10 mi
10:54 PM63 °FClear.5 mph54%29.97 "Hg10 mi
9:54 PM67 °FPassing clouds.3 mph47%29.96 "Hg10 mi
Weather by CustomWeather, © 2016

See weather overviewHow to use our weather pages